Weather History for KCAV - December, 2012

Change the Weather History Date:

Thursday, December 20, 2012

  Actual Average Record
Temperature  
Mean Temperature 20 °F -  
Max Temperature 30 °F 26 °F 52 °F (1967)
Min Temperature 8 °F 8 °F -20 °F (1983)
Degree Days  
Heating Degree Days 45    
Moisture  
Dew Point 17 °F    
Average Humidity 88    
Maximum Humidity 100    
Minimum Humidity 79    
Precipitation  
Precipitation 0.01 in - - ()
Sea Level Pressure  
Sea Level Pressure 29.84 in    
Wind  
Wind Speed 27 mph (NNW)    
Max Wind Speed 39 mph    
Max Gust Speed 48 mph    
Visibility 2 miles    
Events Fog , Rain , Snow    
Averages and records for this station are not official NWS values.
T = Trace of Precipitation, MM = Missing Value Source: NWS Daily Summary

Daily Weather History Graph

Daily Weather History Graph

Search for Another Location

Airport or City:

Trip Planner

Search our weather history database for the weather conditions in past years. The results will help you decide how hot, cold, wet, or windy it might be!

Date:

Astronomy

Dec. 20, 2012 Rise Set
Actual Time 7:41 AM CST 4:43 PM CST
Civil Twilight 7:09 AM CST 5:16 PM CST
Nautical Twilight 6:33 AM CST 5:51 PM CST
Astronomical Twilight 5:59 AM CST 6:26 PM CST
Moon 12:09 PM CST (12/20) 12:22 AM CST (12/20)
Length of Visible Light 10h 06m
Length of Day
9h 02m
First Quarter, 55% of the Moon is Illuminated
Dec 20
First Quarter
Dec 28
Full
Jan 4
Last Quarter
Jan 11
New
Jan 18
First Quarter

Hourly Weather History & Observations

Time (CST) Temp. Windchill Dew Point Humidity Pressure Visibility Wind Dir Wind Speed Gust Speed Precip Events Conditions
12:15 AM 30.2 °F 17.4 °F 30.2 °F 100% 29.79 in 0.8 mi North 20.7 mph - N/A Snow Light Snow
12:35 AM 30.2 °F 17.8 °F 30.2 °F 100% 29.78 in 0.8 mi North 19.6 mph - N/A Snow Light Snow
12:55 AM 30.2 °F 16.2 °F 30.2 °F 100% 29.78 in 0.5 mi North 25.3 mph 32.2 mph N/A Snow Light Snow
1:15 AM 30.2 °F 15.4 °F 28.4 °F 93% 29.77 in 0.8 mi North 28.8 mph 42.6 mph N/A Snow Light Snow
1:35 AM 30.2 °F 15.9 °F 28.4 °F 93% 29.76 in 0.5 mi North 26.5 mph 33.4 mph N/A Snow Light Snow
1:55 AM 28.4 °F 15.1 °F 26.6 °F 93% 29.77 in 1.0 mi North 20.7 mph 28.8 mph N/A Snow Light Snow
2:15 AM 28.4 °F 13.8 °F 26.6 °F 93% 29.76 in 0.8 mi North 25.3 mph 32.2 mph N/A Snow Light Snow
2:35 AM 28.4 °F 13.8 °F 26.6 °F 93% 29.76 in 0.8 mi North 25.3 mph 32.2 mph N/A Snow Light Snow
2:55 AM 26.6 °F 11.7 °F 24.8 °F 93% 29.76 in 0.8 mi North 24.2 mph 32.2 mph 0.01 in Snow Light Snow
3:15 AM 26.6 °F 11.1 °F 24.8 °F 93% 29.75 in 0.5 mi North 26.5 mph 33.4 mph N/A Snow Light Snow
3:35 AM 24.8 °F 8.7 °F 23.0 °F 93% 29.74 in 0.5 mi North 26.5 mph 40.3 mph N/A Snow Light Snow
3:55 AM 23.0 °F 6.0 °F 21.2 °F 93% 29.73 in 0.5 mi North 27.6 mph 41.4 mph N/A Snow Light Snow
4:15 AM 23.0 °F 6.6 °F 21.2 °F 93% 29.73 in 0.2 mi North 25.3 mph 40.3 mph N/A Snow Light Snow
4:35 AM 23.0 °F 6.3 °F 21.2 °F 93% 29.72 in 0.5 mi North 26.5 mph 39.1 mph N/A Snow Light Snow
4:55 AM 23.0 °F 6.6 °F 21.2 °F 93% 29.71 in 0.5 mi North 25.3 mph 36.8 mph N/A Snow Light Snow
5:15 AM 23.0 °F 6.3 °F 21.2 °F 93% 29.71 in 0.8 mi North 26.5 mph 35.7 mph N/A Snow Light Snow
5:35 AM 23.0 °F 6.0 °F 19.4 °F 86% 29.72 in 0.8 mi North 27.6 mph 36.8 mph N/A Snow Light Snow
5:55 AM 23.0 °F 5.7 °F 19.4 °F 86% 29.72 in 1.0 mi North 28.8 mph 35.7 mph N/A Rain Light Freezing Rain
6:15 AM 21.2 °F 3.3 °F 19.4 °F 93% 29.72 in 0.8 mi North 28.8 mph - N/A Rain Light Freezing Rain
6:35 AM 21.2 °F 3.5 °F 19.4 °F 93% 29.73 in 0.5 mi North 27.6 mph 35.7 mph N/A Rain Light Freezing Rain
6:55 AM 21.2 °F 3.9 °F 19.4 °F 93% 29.73 in 0.5 mi North 26.5 mph 39.1 mph N/A Rain Light Freezing Rain
7:15 AM 21.2 °F 4.2 °F 19.4 °F 93% 29.74 in 0.5 mi North 25.3 mph 35.7 mph N/A Rain Light Freezing Rain
7:35 AM 21.2 °F 4.2 °F 19.4 °F 93% 29.74 in 0.2 mi North 25.3 mph 35.7 mph N/A Rain Light Freezing Rain
7:55 AM 21.2 °F 3.3 °F 17.6 °F 86% 29.74 in 0.2 mi NNW 28.8 mph 38.0 mph N/A Rain Light Freezing Rain
8:15 AM 21.2 °F 3.5 °F 17.6 °F 86% 29.75 in 0.2 mi North 27.6 mph 35.7 mph N/A Rain Light Freezing Rain
8:35 AM 21.2 °F 3.0 °F 17.6 °F 86% 29.75 in 0.2 mi NNW 29.9 mph 41.4 mph N/A Rain Light Freezing Rain
8:55 AM 21.2 °F 3.0 °F 17.6 °F 86% 29.74 in 0.2 mi NNW 29.9 mph 42.6 mph N/A Rain Light Freezing Rain
9:15 AM 21.2 °F 2.2 °F 17.6 °F 86% 29.75 in 0.2 mi NNW 33.4 mph 40.3 mph N/A Rain Light Freezing Rain
9:35 AM 21.2 °F 2.7 °F 17.6 °F 86% 29.75 in 0.2 mi NNW 31.1 mph 39.1 mph N/A Rain Light Freezing Rain
9:55 AM 21.2 °F 3.3 °F 17.6 °F 86% 29.77 in 0.2 mi NNW 28.8 mph 39.1 mph N/A Rain Light Freezing Rain
10:15 AM 23.0 °F 5.1 °F 19.4 °F 86% 29.77 in 0.2 mi NNW 31.1 mph 44.9 mph N/A Rain Light Freezing Rain
10:35 AM 23.0 °F 5.7 °F 19.4 °F 86% 29.78 in 0.2 mi NNW 28.8 mph 40.3 mph N/A Rain Light Freezing Rain
10:55 AM 21.2 °F 3.5 °F 19.4 °F 93% 29.78 in 0.2 mi NNW 27.6 mph 36.8 mph N/A Rain Light Freezing Rain
11:15 AM 21.2 °F 3.5 °F 19.4 °F 93% 29.77 in 0.2 mi NNW 27.6 mph 42.6 mph N/A Rain Light Freezing Rain
11:35 AM 23.0 °F 5.4 °F 19.4 °F 86% 29.77 in 0.5 mi NNW 29.9 mph 38.0 mph N/A Rain Light Freezing Rain
11:55 AM 23.0 °F 5.1 °F 19.4 °F 86% 29.77 in 0.2 mi NNW 31.1 mph 39.1 mph N/A Rain Light Freezing Rain
12:15 PM 21.2 °F 3.3 °F 19.4 °F 93% 29.77 in 0.2 mi NNW 28.8 mph 41.4 mph N/A Rain Light Freezing Rain
12:35 PM 21.2 °F 2.7 °F 19.4 °F 93% 29.78 in 0.5 mi NNW 31.1 mph 41.4 mph N/A Rain Light Freezing Rain
12:55 PM 21.2 °F 2.2 °F 19.4 °F 93% 29.78 in 0.5 mi NNW 33.4 mph 42.6 mph N/A Rain Light Freezing Rain
1:15 PM 21.2 °F 2.2 °F 19.4 °F 93% 29.78 in 0.5 mi NNW 33.4 mph 43.7 mph N/A   Overcast
1:35 PM 21.2 °F 1.4 °F 19.4 °F 93% 29.79 in 0.5 mi NNW 36.8 mph 44.9 mph N/A   Overcast
1:55 PM 21.2 °F 1.7 °F 17.6 °F 86% 29.80 in 0.5 mi NNW 35.7 mph 42.6 mph N/A Fog Light Freezing Fog
2:15 PM 21.2 °F 1.4 °F 17.6 °F 86% 29.81 in 0.5 mi NNW 36.8 mph 48.3 mph N/A   Overcast
2:35 PM 19.4 °F -1.6 °F 15.8 °F 86% 29.82 in 0.5 mi NW 39.1 mph 46.0 mph N/A Fog Light Freezing Fog
2:55 PM 19.4 °F -1.3 °F 15.8 °F 86% 29.83 in 0.5 mi NNW 38.0 mph 44.9 mph N/A Fog Light Freezing Fog
3:15 PM 17.6 °F -3.1 °F 14.0 °F 86% 29.84 in 0.2 mi NNW 34.5 mph 46.0 mph N/A Fog Light Freezing Fog
3:35 PM 17.6 °F -3.1 °F 14.0 °F 86% 29.85 in 0.8 mi NNW 34.5 mph 41.4 mph N/A   Overcast
3:55 PM 17.6 °F -3.3 °F 15.8 °F 93% 29.86 in 1.2 mi NW 35.7 mph 41.4 mph N/A   Overcast
4:15 PM 17.6 °F -3.3 °F 14.0 °F 86% 29.87 in 1.5 mi NW 35.7 mph 41.4 mph N/A   Overcast
4:35 PM 17.6 °F -3.1 °F 14.0 °F 86% 29.88 in 2.5 mi NW 34.5 mph 41.4 mph N/A   Haze
4:55 PM 17.6 °F -1.3 °F 12.2 °F 79% 29.90 in 3.0 mi NW 27.6 mph 39.1 mph N/A   Haze
5:15 PM 15.8 °F -5.0 °F 12.2 °F 86% 29.91 in 4.0 mi NW 32.2 mph 38.0 mph N/A   Haze
5:35 PM 15.8 °F -4.4 °F 10.4 °F 79% 29.92 in 7.0 mi NW 29.9 mph 35.7 mph N/A   Partly Cloudy
5:55 PM 14.0 °F -4.7 °F 10.4 °F 86% 29.93 in 6.0 mi NW 23.0 mph 38.0 mph N/A   Haze
6:15 PM 14.0 °F -6.5 °F 10.4 °F 86% 29.94 in 7.0 mi NW 28.8 mph 35.7 mph N/A   Mostly Cloudy
6:35 PM 14.0 °F -6.2 °F 8.6 °F 79% 29.95 in 6.0 mi NW 27.6 mph 35.7 mph N/A   Haze
6:55 PM 14.0 °F -6.5 °F 8.6 °F 79% 29.96 in 8.0 mi NW 28.8 mph - N/A   Overcast
7:15 PM 12.2 °F -7.9 °F 8.6 °F 85% 29.96 in 8.0 mi NW 25.3 mph 34.5 mph N/A   Mostly Cloudy
7:35 PM 12.2 °F -8.2 °F 8.6 °F 85% 29.97 in 5.0 mi NW 26.5 mph 35.7 mph N/A   Haze
7:55 PM 12.2 °F -8.2 °F 8.6 °F 85% 29.98 in 3.0 mi NW 26.5 mph 34.5 mph N/A   Haze
8:15 PM 12.2 °F -9.3 °F 8.6 °F 85% 29.98 in 2.0 mi NW 29.9 mph 38.0 mph N/A   Haze
8:35 PM 12.2 °F -8.9 °F 6.8 °F 79% 29.99 in 3.0 mi NW 28.8 mph 35.7 mph N/A   Haze
8:55 PM 12.2 °F -7.9 °F 6.8 °F 79% 30.00 in 4.0 mi NW 25.3 mph 31.1 mph N/A   Haze
9:15 PM 12.2 °F -7.1 °F 6.8 °F 79% 30.01 in 9.0 mi NNW 23.0 mph 31.1 mph N/A   Overcast
9:35 PM 10.4 °F -10.7 °F 6.8 °F 85% 30.01 in 6.0 mi NW 26.5 mph - N/A   Haze
9:55 PM 10.4 °F -8.6 °F 6.8 °F 85% 30.02 in 4.0 mi NW 20.7 mph - N/A   Haze
10:15 PM 10.4 °F -11.0 °F 6.8 °F 85% 30.03 in 4.0 mi NW 27.6 mph - N/A   Haze
10:35 PM 10.4 °F -10.7 °F 5.0 °F 79% 30.03 in 5.0 mi NW 26.5 mph 35.7 mph N/A   Haze
10:55 PM 10.4 °F -10.3 °F 5.0 °F 79% 30.04 in 6.0 mi NW 25.3 mph 33.4 mph N/A   Haze
11:15 PM 10.4 °F -11.0 °F 5.0 °F 79% 30.05 in 5.0 mi NW 27.6 mph 34.5 mph N/A   Haze
11:35 PM 10.4 °F -11.0 °F 5.0 °F 79% 30.05 in 6.0 mi NW 27.6 mph 34.5 mph N/A   Haze
11:55 PM 8.6 °F -13.1 °F 5.0 °F 85% 30.06 in 10.0 mi NW 26.5 mph - N/A   Overcast